Location: Newark
(41.9364°N, 2.8061°E)
Time: 21:36:44
(UTC+00:00)

ISS - Visible Passes

Search period start: 17 January 2020 00:00
Search period end: 27 January 2020 00:00
Orbit: 415 x 421 km, 51.6° (Epoch: 18 January)

Date Brightness Start Highest point End Pass type
(mag) Time Alt. Az. Time Alt. Az. Time Alt. Az.
18 Jan -1.1 18:57:22 10° SSW 18:58:01 14° SSW 18:58:01 14° SSW visible
19 Jan -2.0 18:10:08 10° S 18:12:28 19° SE 18:12:28 19° SE visible
20 Jan -1.4 17:23:52 10° SE 17:24:47 11° SE 17:25:43 10° ESE visible
20 Jan -2.3 18:57:42 10° SW 18:59:48 35° SW 18:59:48 35° SW visible
21 Jan -3.5 18:09:50 10° SW 18:13:07 52° SE 18:14:05 37° E visible
22 Jan -2.6 17:22:13 10° SSW 17:25:13 30° SE 17:28:12 10° ENE visible
22 Jan -2.2 18:58:45 10° W 19:01:13 33° WNW 19:01:13 33° WNW visible
23 Jan -3.4 18:10:31 10° WSW 18:13:50 57° NNW 18:15:21 28° NE visible
24 Jan -3.8 17:22:26 10° SW 17:25:48 87° SE 17:29:10 10° NE visible
24 Jan -1.6 19:00:13 10° WNW 19:02:20 21° NNW 19:02:20 21° NNW visible
25 Jan -2.2 18:11:45 10° W 18:14:43 28° NNW 18:16:20 19° NNE visible
26 Jan -2.7 17:23:22 10° W 17:26:33 39° NNW 17:29:44 10° NE visible
26 Jan -1.2 19:01:45 10° NW 19:03:14 15° NNW 19:03:14 15° NNW visible
